VKG491 LCLK-ESMX

Flight info

Callsign VKG491
Flight time N/A
Altitude 34000
Route PHA M31 GENOS DCT PEDER DCT EVENO UM601 EXELA UN127 IMR UN128 LMO DCT EVIVI L863 OKANA DCT PARAK DCT BILNA DCT SOPAV DCT REGLI DCT DENKO L996 GOSOT DCT JX
Aircraft A321/M-SDE3FGHIRWY/LB1

Departure

Time N/A
Airport Larnaca International Airport (LCLK)

Arrival

Time 2026-05-06 20:43
Airport Växjö Kronoberg Airport (ESMX)
Time Latitude Longitude Altitude Speed Heading
2026-05-06 19:10 40.73194 24.27537 34058 ft 414 kts 317°
2026-05-06 19:11 40.81690 24.17303 34044 ft 414 kts 317°
2026-05-06 19:11 40.98721 23.96605 34066 ft 415 kts 316°
2026-05-06 19:12 41.15657 23.75923 34061 ft 414 kts 316°
2026-05-06 19:12 41.32573 23.55092 34061 ft 415 kts 316°
2026-05-06 19:12 41.41254 23.44990 33994 ft 418 kts 328°
2026-05-06 19:13 41.51719 23.38183 34012 ft 419 kts 331°
2026-05-06 19:13 41.67886 23.27536 34041 ft 419 kts 331°
2026-05-06 19:14 41.88811 23.13747 34046 ft 420 kts 331°
2026-05-06 19:14 42.09817 22.99814 34022 ft 422 kts 331°
2026-05-06 19:15 42.30770 22.85807 34017 ft 424 kts 331°
2026-05-06 19:15 42.51926 22.71552 34026 ft 425 kts 331°
2026-05-06 19:16 42.73083 22.57191 34028 ft 426 kts 331°
2026-05-06 19:16 42.90871 22.45055 34021 ft 427 kts 331°
2026-05-06 19:17 43.15638 22.28158 33985 ft 428 kts 331°
2026-05-06 19:17 43.33532 22.15839 33967 ft 429 kts 330°
2026-05-06 19:18 43.54920 22.01027 33973 ft 431 kts 330°
2026-05-06 19:18 43.76222 21.86122 33973 ft 433 kts 330°
2026-05-06 19:19 43.97698 21.70977 33960 ft 434 kts 330°
2026-05-06 19:19 44.19350 21.55595 33952 ft 434 kts 329°
2026-05-06 19:20 44.40747 21.40272 33932 ft 435 kts 329°
2026-05-06 19:20 44.62234 21.24765 33916 ft 436 kts 329°
2026-05-06 19:21 44.83876 21.08991 33929 ft 437 kts 328°
2026-05-06 19:21 45.05467 20.93117 33894 ft 439 kts 328°
2026-05-06 19:22 45.27172 20.77049 33917 ft 441 kts 328°
2026-05-06 19:22 45.48993 20.60734 33880 ft 445 kts 328°
2026-05-06 19:23 45.70929 20.44186 33909 ft 446 kts 328°
2026-05-06 19:23 45.92966 20.27397 33905 ft 450 kts 328°
2026-05-06 19:24 46.15067 20.10443 33898 ft 452 kts 329°
2026-05-06 19:24 46.31391 20.02266 33790 ft 454 kts 338°
2026-05-06 19:24 46.34389 20.00804 33910 ft 457 kts 338°
2026-05-06 19:25 46.42487 19.96877 33932 ft 458 kts 338°
2026-05-06 19:25 46.66545 19.85231 33922 ft 454 kts 338°
2026-05-06 19:26 46.90534 19.73494 33924 ft 454 kts 338°
2026-05-06 19:26 47.10966 19.63412 33882 ft 456 kts 338°
2026-05-06 19:27 47.26910 19.55471 33903 ft 457 kts 337°
2026-05-06 19:27 47.51046 19.43368 33907 ft 459 kts 337°
2026-05-06 19:28 47.71220 19.33172 33901 ft 458 kts 337°
2026-05-06 19:28 47.77259 19.30100 33913 ft 458 kts 337°
2026-05-06 19:29 47.83260 19.27034 33899 ft 459 kts 336°
2026-05-06 19:29 47.89336 19.23932 33895 ft 459 kts 336°
2026-05-06 19:30 47.95328 19.20868 33899 ft 458 kts 336°
2026-05-06 19:30 48.01359 19.17772 33892 ft 458 kts 336°
2026-05-06 19:31 48.07375 19.14679 33893 ft 458 kts 336°
2026-05-06 19:31 48.16398 19.10010 33912 ft 457 kts 336°
2026-05-06 19:32 48.22406 19.06891 33902 ft 457 kts 336°
2026-05-06 19:32 48.28417 19.03771 33887 ft 457 kts 336°
2026-05-06 19:33 48.34425 19.00654 33877 ft 457 kts 336°
2026-05-06 19:33 48.40430 18.97520 33882 ft 457 kts 336°
2026-05-06 19:34 48.46436 18.94379 33873 ft 457 kts 336°
2026-05-06 19:34 48.52434 18.91229 33888 ft 457 kts 336°
2026-05-06 19:35 48.58435 18.88077 33874 ft 457 kts 336°
2026-05-06 19:35 48.64448 18.84911 33870 ft 457 kts 336°
2026-05-06 19:36 48.70444 18.81736 33867 ft 456 kts 336°
2026-05-06 19:36 48.76437 18.78565 33852 ft 457 kts 336°
2026-05-06 19:37 48.82431 18.75380 33854 ft 456 kts 336°
2026-05-06 19:37 48.88426 18.72187 33855 ft 456 kts 336°
2026-05-06 19:38 48.94419 18.68992 33865 ft 456 kts 335°
2026-05-06 19:38 49.00412 18.65786 33855 ft 456 kts 335°
2026-05-06 19:39 49.06390 18.62563 33846 ft 456 kts 335°
2026-05-06 19:39 49.12376 18.59345 33840 ft 456 kts 335°
2026-05-06 19:40 49.18351 18.56129 33843 ft 456 kts 335°
2026-05-06 19:40 49.24300 18.52913 33848 ft 456 kts 335°
2026-05-06 19:41 49.30309 18.49655 33873 ft 455 kts 335°
2026-05-06 19:41 49.36279 18.46407 33859 ft 455 kts 335°
2026-05-06 19:42 49.42107 18.42736 33844 ft 450 kts 328°
2026-05-06 19:42 49.47752 18.38624 33825 ft 449 kts 328°
2026-05-06 19:43 49.53405 18.34501 33818 ft 449 kts 328°
2026-05-06 19:43 49.59041 18.30387 33817 ft 449 kts 328°
2026-05-06 19:44 49.64648 18.26283 33843 ft 449 kts 328°
2026-05-06 19:44 49.70317 18.22112 33834 ft 449 kts 327°
2026-05-06 19:45 49.75916 18.17975 33825 ft 448 kts 327°
2026-05-06 19:45 49.81538 18.13816 33816 ft 448 kts 327°
2026-05-06 19:46 49.87170 18.09641 33970 ft 450 kts 328°
2026-05-06 19:46 49.89993 18.07544 34219 ft 450 kts 328°
2026-05-06 19:46 49.92741 18.05520 34129 ft 451 kts 333°
2026-05-06 19:47 49.95673 18.03765 34580 ft 454 kts 333°
2026-05-06 19:47 49.98646 18.02063 34755 ft 455 kts 333°
2026-05-06 19:47 50.01609 18.00363 34967 ft 456 kts 333°
2026-05-06 19:47 50.04563 17.98574 35179 ft 454 kts 330°
2026-05-06 19:48 50.07454 17.96625 35379 ft 453 kts 329°
2026-05-06 19:48 50.10303 17.94549 35595 ft 452 kts 328°
2026-05-06 19:48 50.13130 17.92405 35750 ft 452 kts 327°
2026-05-06 19:48 50.15957 17.90246 35777 ft 452 kts 327°
2026-05-06 19:49 50.21630 17.85980 35772 ft 453 kts 328°
2026-05-06 19:49 50.27338 17.81793 35772 ft 453 kts 328°
2026-05-06 19:50 50.33046 17.77632 35803 ft 453 kts 328°
2026-05-06 19:50 50.38782 17.73415 35777 ft 456 kts 328°
2026-05-06 19:51 50.44512 17.69173 35775 ft 456 kts 328°
2026-05-06 19:51 50.50294 17.64893 35787 ft 456 kts 328°
2026-05-06 19:52 50.55997 17.60666 35790 ft 456 kts 328°
2026-05-06 19:52 50.61766 17.56365 35802 ft 456 kts 328°
2026-05-06 19:53 50.67455 17.52110 35851 ft 456 kts 328°
2026-05-06 19:53 50.73195 17.47818 35811 ft 457 kts 328°
2026-05-06 19:54 50.78942 17.43511 35795 ft 458 kts 328°
2026-05-06 19:54 50.84698 17.39174 35792 ft 458 kts 328°
2026-05-06 19:55 50.90451 17.34826 35798 ft 458 kts 328°
2026-05-06 19:55 50.96206 17.30465 35802 ft 459 kts 328°
2026-05-06 19:56 51.01964 17.26100 35813 ft 459 kts 328°
2026-05-06 19:56 51.07728 17.21713 35837 ft 459 kts 328°
2026-05-06 19:57 51.13497 17.17307 35834 ft 460 kts 328°
2026-05-06 19:57 51.19260 17.12901 35814 ft 460 kts 328°
2026-05-06 19:58 51.25026 17.08475 35811 ft 460 kts 328°
2026-05-06 19:58 51.30794 17.04032 35820 ft 460 kts 328°
2026-05-06 19:59 51.36562 16.99573 35818 ft 460 kts 328°
2026-05-06 19:59 51.42323 16.95105 35837 ft 461 kts 328°
2026-05-06 20:00 51.48092 16.90633 35837 ft 461 kts 328°
2026-05-06 20:00 51.58802 16.82284 35847 ft 460 kts 328°
2026-05-06 20:01 51.81802 16.64217 35853 ft 459 kts 328°
2026-05-06 20:01 52.04692 16.46020 35845 ft 459 kts 327°
2026-05-06 20:02 52.27641 16.27578 35837 ft 461 kts 328°
2026-05-06 20:02 52.50649 16.08860 35856 ft 462 kts 328°
2026-05-06 20:03 52.73695 15.89892 35861 ft 463 kts 327°
2026-05-06 20:03 52.97154 15.71703 35871 ft 466 kts 330°
2026-05-06 20:04 53.20769 15.53829 35874 ft 466 kts 330°
2026-05-06 20:04 53.44337 15.35772 35895 ft 466 kts 330°
2026-05-06 20:05 53.50774 15.32129 35848 ft 475 kts 344°
2026-05-06 20:05 53.54389 15.30913 35877 ft 475 kts 344°
2026-05-06 20:05 53.80224 15.21930 35932 ft 473 kts 343°
2026-05-06 20:06 54.05950 15.12843 35928 ft 471 kts 343°
2026-05-06 20:06 54.31608 15.03652 35952 ft 471 kts 343°
2026-05-06 20:07 54.57230 14.94334 35958 ft 470 kts 343°
2026-05-06 20:07 54.82854 14.85588 35919 ft 475 kts 355°
2026-05-06 20:08 54.99894 14.84953 35979 ft 473 kts 354°
2026-05-06 20:08 55.06488 14.84630 35975 ft 473 kts 354°
2026-05-06 20:09 55.13078 14.84342 35974 ft 474 kts 355°
2026-05-06 20:09 55.19630 14.84069 35974 ft 474 kts 355°
2026-05-06 20:10 55.26209 14.83784 35974 ft 474 kts 354°
2026-05-06 20:10 55.32806 14.83480 35975 ft 474 kts 354°
2026-05-06 20:11 55.39402 14.83175 35973 ft 474 kts 354°
2026-05-06 20:11 55.46003 14.82885 35995 ft 474 kts 355°
2026-05-06 20:12 55.52592 14.82601 35805 ft 474 kts 355°
2026-05-06 20:12 55.55912 14.82457 34867 ft 481 kts 355°
2026-05-06 20:12 55.59273 14.82306 34042 ft 484 kts 355°
2026-05-06 20:13 55.62648 14.82153 33153 ft 485 kts 355°
2026-05-06 20:13 55.66006 14.81999 31810 ft 481 kts 356°
2026-05-06 20:13 55.69351 14.81841 30530 ft 478 kts 356°
2026-05-06 20:13 55.72617 14.81690 29684 ft 463 kts 356°
2026-05-06 20:14 55.75798 14.81550 28632 ft 452 kts 356°
2026-05-06 20:14 55.78916 14.81416 27682 ft 446 kts 356°
2026-05-06 20:14 55.82029 14.81276 26662 ft 450 kts 356°
2026-05-06 20:14 55.85162 14.81131 25554 ft 450 kts 356°
2026-05-06 20:15 55.88327 14.80984 24497 ft 458 kts 356°
2026-05-06 20:15 55.91527 14.80833 23442 ft 464 kts 356°
2026-05-06 20:15 55.94749 14.80680 22588 ft 461 kts 356°
2026-05-06 20:15 55.97958 14.80530 21829 ft 461 kts 356°
2026-05-06 20:16 56.01162 14.80380 21055 ft 458 kts 356°
2026-05-06 20:16 56.04332 14.80235 20298 ft 454 kts 356°
2026-05-06 20:16 56.07478 14.80090 19567 ft 450 kts 356°
2026-05-06 20:16 56.10582 14.79947 18952 ft 443 kts 356°
2026-05-06 20:17 56.13642 14.79807 18324 ft 437 kts 356°
2026-05-06 20:17 56.16674 14.79667 17589 ft 432 kts 356°
2026-05-06 20:17 56.19662 14.79527 16871 ft 428 kts 356°
2026-05-06 20:17 56.22603 14.79391 15968 ft 418 kts 356°
2026-05-06 20:18 56.25496 14.79257 14849 ft 413 kts 356°
2026-05-06 20:18 56.28350 14.79126 13804 ft 407 kts 357°
2026-05-06 20:18 56.31156 14.78996 12678 ft 400 kts 357°
2026-05-06 20:18 56.33911 14.78866 11648 ft 396 kts 357°
2026-05-06 20:19 56.36652 14.78733 11038 ft 390 kts 358°
2026-05-06 20:19 56.39335 14.78601 10441 ft 385 kts 358°
2026-05-06 20:19 56.42012 14.78472 9878 ft 380 kts 358°
2026-05-06 20:19 56.44587 14.78356 9734 ft 362 kts 358°
2026-05-06 20:20 56.47049 14.78249 9589 ft 346 kts 358°
2026-05-06 20:20 56.49406 14.78143 9451 ft 331 kts 358°
2026-05-06 20:20 56.51659 14.78038 9318 ft 317 kts 358°
2026-05-06 20:20 56.53820 14.77935 9182 ft 304 kts 358°
2026-05-06 20:21 56.55896 14.77832 9051 ft 292 kts 358°
2026-05-06 20:21 56.57857 14.77732 8913 ft 280 kts 358°
2026-05-06 20:21 56.59799 14.77638 8691 ft 272 kts 358°
2026-05-06 20:21 56.61683 14.77550 8345 ft 269 kts 358°
2026-05-06 20:22 56.63521 14.77457 7974 ft 267 kts 358°
2026-05-06 20:22 56.65376 14.77344 7605 ft 265 kts 358°
2026-05-06 20:22 56.67213 14.77222 7235 ft 264 kts 358°
2026-05-06 20:22 56.69042 14.77091 6871 ft 262 kts 358°
2026-05-06 20:23 56.70858 14.76952 6503 ft 260 kts 358°
2026-05-06 20:23 56.72655 14.76806 6130 ft 258 kts 358°
2026-05-06 20:23 56.74447 14.76661 5704 ft 258 kts 358°
2026-05-06 20:23 56.76237 14.76520 5392 ft 255 kts 358°
2026-05-06 20:24 56.78023 14.76386 5256 ft 258 kts 358°
2026-05-06 20:24 56.79819 14.76267 5133 ft 259 kts 359°
2026-05-06 20:24 56.81602 14.76718 4999 ft 259 kts 14°
2026-05-06 20:24 56.83341 14.77598 4871 ft 259 kts 16°
2026-05-06 20:25 56.85073 14.78521 4743 ft 259 kts 16°
2026-05-06 20:25 56.86800 14.79443 4611 ft 258 kts 17°
2026-05-06 20:25 56.88534 14.80362 4471 ft 262 kts 16°
2026-05-06 20:25 56.90296 14.81336 4337 ft 265 kts 16°
2026-05-06 20:26 56.92064 14.82320 4205 ft 266 kts 16°
2026-05-06 20:26 56.93819 14.83297 4069 ft 260 kts 16°
2026-05-06 20:26 56.95515 14.84239 3940 ft 249 kts 16°
2026-05-06 20:26 56.97138 14.85139 3835 ft 236 kts 16°
2026-05-06 20:27 56.98658 14.85983 3696 ft 223 kts 16°
2026-05-06 20:27 57.00087 14.86774 3586 ft 204 kts 16°
2026-05-06 20:27 57.01393 14.87498 3443 ft 189 kts 16°
2026-05-06 20:27 57.02610 14.88169 3312 ft 178 kts 16°
2026-05-06 20:28 57.03780 14.88814 3177 ft 174 kts 16°
2026-05-06 20:28 57.04944 14.89453 3090 ft 175 kts 16°
2026-05-06 20:28 57.06112 14.90087 3012 ft 175 kts 16°
2026-05-06 20:28 57.07291 14.90592 3006 ft 175 kts 358°
2026-05-06 20:29 57.08387 14.89831 3012 ft 170 kts 313°
2026-05-06 20:29 57.08932 14.87973 3021 ft 166 kts 285°
2026-05-06 20:29 57.09085 14.85924 3013 ft 161 kts 253°
2026-05-06 20:29 57.08658 14.84044 3017 ft 159 kts 239°
2026-05-06 20:30 57.08060 14.82337 3017 ft 158 kts 230°
2026-05-06 20:30 57.06620 14.79304 3011 ft 158 kts 225°
2026-05-06 20:30 57.05704 14.78248 2906 ft 156 kts 195°
2026-05-06 20:31 57.04646 14.77788 2736 ft 158 kts 193°
2026-05-06 20:31 57.03574 14.77334 2554 ft 158 kts 192°
2026-05-06 20:31 57.02505 14.76879 2344 ft 157 kts 192°
2026-05-06 20:31 57.01451 14.76431 2156 ft 152 kts 192°
2026-05-06 20:32 57.00466 14.76010 1956 ft 142 kts 192°
2026-05-06 20:32 56.99518 14.75607 1768 ft 138 kts 191°
2026-05-06 20:32 56.98582 14.75208 1579 ft 137 kts 191°
2026-05-06 20:32 56.97647 14.74811 1385 ft 138 kts 192°
2026-05-06 20:33 56.96706 14.74410 1224 ft 140 kts 192°
2026-05-06 20:33 56.95756 14.74000 1025 ft 141 kts 191°
2026-05-06 20:33 56.94818 14.73609 854 ft 139 kts 191°
2026-05-06 20:33 56.93855 14.73182 640 ft 142 kts 190°
2026-05-06 20:34 56.92932 14.72879 841 ft 141 kts 194°
2026-05-06 20:34 56.91947 14.72458 1747 ft 146 kts 192°
2026-05-06 20:34 56.90955 14.72016 2399 ft 148 kts 193°
2026-05-06 20:34 56.89939 14.71512 2734 ft 157 kts 202°
2026-05-06 20:35 56.89234 14.70002 2958 ft 165 kts 257°
2026-05-06 20:35 56.89487 14.68009 3009 ft 168 kts 309°
2026-05-06 20:35 56.90512 14.67082 3005 ft 171 kts
2026-05-06 20:35 56.91693 14.67394 3032 ft 172 kts 12°
2026-05-06 20:36 56.92859 14.67877 3017 ft 172 kts 13°
2026-05-06 20:36 56.94026 14.68384 3030 ft 172 kts 13°
2026-05-06 20:36 56.95187 14.68888 2989 ft 172 kts 13°
2026-05-06 20:36 56.96350 14.69393 2854 ft 172 kts 13°
2026-05-06 20:37 56.97514 14.69895 2728 ft 172 kts 13°
2026-05-06 20:37 56.98677 14.70392 2636 ft 172 kts 13°
2026-05-06 20:37 56.99840 14.70891 2609 ft 172 kts 13°
2026-05-06 20:37 57.01001 14.71384 2607 ft 172 kts 13°
2026-05-06 20:38 57.02166 14.71883 2610 ft 172 kts 13°
2026-05-06 20:38 57.03330 14.72384 2610 ft 172 kts 13°
2026-05-06 20:38 57.04493 14.72880 2609 ft 172 kts 13°
2026-05-06 20:38 57.05659 14.73380 2610 ft 172 kts 13°
2026-05-06 20:39 57.06786 14.74112 2593 ft 173 kts 39°
2026-05-06 20:39 57.07400 14.75917 2607 ft 167 kts 86°
2026-05-06 20:39 57.06877 14.77501 2570 ft 147 kts 164°
2026-05-06 20:39 57.05837 14.77878 2646 ft 156 kts 176°
2026-05-06 20:40 57.04756 14.77813 2621 ft 157 kts 189°
2026-05-06 20:40 57.03686 14.77386 2522 ft 158 kts 193°
2026-05-06 20:40 57.02615 14.76928 2351 ft 157 kts 193°
2026-05-06 20:40 57.01571 14.76482 2186 ft 147 kts 192°
2026-05-06 20:41 57.00597 14.76067 1966 ft 141 kts 192°
2026-05-06 20:41 56.99653 14.75664 1791 ft 138 kts 192°
2026-05-06 20:41 56.98722 14.75267 1587 ft 137 kts 191°
2026-05-06 20:41 56.97791 14.74881 1401 ft 137 kts 192°
2026-05-06 20:42 56.96851 14.74511 1238 ft 142 kts 191°
2026-05-06 20:42 56.95858 14.74061 1069 ft 150 kts 193°
2026-05-06 20:42 56.94841 14.73629 824 ft 149 kts 191°
2026-05-06 20:42 56.93845 14.73188 645 ft 146 kts 191°
2026-05-06 20:43 56.93126 14.72873 604 ft 77 kts 192°
2026-05-06 20:43 56.92689 14.72698 610 ft 37 kts 193°
2026-05-06 20:43 56.92589 14.72736 617 ft 11 kts 112°
2026-05-06 20:43 56.92570 14.72873 618 ft 11 kts 103°
2026-05-06 20:44 56.92549 14.72984 620 ft 4 kts 136°
2026-05-06 20:44 56.92528 14.72984 614 ft 3 kts 197°
2026-05-06 20:44 56.92488 14.72982 613 ft 8 kts 165°
2026-05-06 20:44 56.92457 14.73016 608 ft 6 kts 143°
2026-05-06 20:45 56.92443 14.73035 610 ft 0 kts 143°